CAPE
13 18 15 7 13 20 17 19 24 22 9 20 15 12 0 0 0 0 0 0 0 0 0 0 0 0 0 0 0 0 0 0 0 0 0 0 0 0 0 0 0 0 0 0 0
7 25 16 15 19 19 25 28 10 20 19 6 17 8 0 0 0 0 0 0 0 0 0 0 0 0 0 0 0 0 0 0 0 0 0 0 0 0 0 0 0 0 0 0 0
44 13 15 11 12 13 10 34 22 17 36 26 17 1 0 0 0 0 0 0 0 0 0 0 0 0 0 0 0 0 0 0 0 0 0 0 0 0 0 0 0 0 0 0 0
22 18 17 26 10 10 10 34 17 25 19 37 24 17 4 0 0 0 0 0 0 0 0 0 0 0 0 0 0 0 0 0 0 0 0 0 0 0 0 0 0 0 0 0 0
23 29 13 34 26 15 13 21 16 8 12 27 30 28 1 0 0 0 0 0 0 0 0 0 0 0 0 0 0 0 0 0 0 0 0 0 0 0 0 0 0 0 0 0 0
32 24 31 38 21 26 19 39 20 5 1 22 46 23 0 0 0 0 0 0 0 0 0 0 0 0 0 0 0 0 0 0 0 0 0 0 0 0 0 0 0 0 0 0 0
38 34 19 32 32 16 28 35 32 13 5 43 42 21 1 0 0 0 0 0 0 0 0 0 0 0 0 0 0 0 0 0 0 0 0 0 0 0 0 0 0 0 0 0 0
42 28 36 16 42 22 24 25 24 9 18 37 38 20 2 1 0 0 0 0 0 0 0 0 0 0 0 0 0 0 0 0 0 0 0 0 0 0 0 0 0 0 0 0 0
38 34 19 20 21 20 11 30 23 14 17 28 14 8 3 0 0 0 0 0 0 0 0 0 0 0 0 0 0 0 0 0 0 0 0 0 0 0 0 0 0 0 0 0 0
39 39 35 20 24 16 15 39 24 33 30 32 15 5 0 1 0 0 0 0 0 0 0 0 0 0 0 0 0 0 0 0 0 0 0 0 0 0 0 0 0 0 0 0 0
31 36 41 42 49 31 16 50 43 2 10 0 0 0 0 0 0 0 0 0 3 1 0 3 0 0 0 0 0 0 0 0 0 0 0 0 0 0 0 0 0 0 0 0 0
48 38 46 38 48 31 29 32 11 0 1 1 0 0 0 0 0 0 0 0 0 0 1 1 0 0 0 0 0 0 0 0 0 0 0 0 0 0 0 0 0 0 0 0 0
53 55 38 38 48 30 13 28 0 0 0 1 0 0 0 0 0 0 0 0 0 0 0 0 0 0 0 0 0 0 0 0 0 0 0 0 0 0 0 0 0 0 0 0 0
60 70 55 50 10 5 22 4 1 2 2 0 0 0 0 0 0 0 0 0 3 0 0 0 0 0 0 0 0 0 0 0 0 0 0 0 0 0 0 0 0 0 0 0 0
50 49 64 81 3 21 4 0 0 3 0 0 0 0 0 0 0 0 0 0 0 0 0 0 0 0 0 0 0 0 0 0 0 0 0 0 0 0 0 0 0 0 0 0 0
78 68 63 55 30 0 5 33 1 0 0 0 0 0 0 1 0 0 11 27 0 1 2 0 0 0 0 0 0 0 0 0 0 0 0 0 0 0 0 0 0 0 0 0 0
65 93 78 38 0 13 24 4 1 0 0 0 0 0 0 0 1 1 6 23 4 2 1 1 2 0 0 0 0 1 0 0 0 0 0 0 0 0 0 0 0 0 0 0 0
121 100 80 45 15 8 10 0 0 0 0 0 0 0 0 0 3 5 4 6 11 0 0 0 0 2 0 0 0 2 0 0 0 0 0 0 0 0 0 0 0 0 0 0 0
146 56 50 10 22 24 7 0 0 0 0 0 1 1 0 0 0 6 2 1 3 0 0 0 0 0 0 0 0 2 5 0 0 0 0 0 0 0 0 0 0 0 0 0 0
57 20 2 0 24 8 0 0 0 0 0 0 0 0 0 1 0 2 1 0 0 0 0 0 0 0 0 1 0 0 0 0 0 0 0 0 0 0 0 0 0 0 0 0 0
22 19 0 0 6 7 0 0 0 0 12 1 0 0 0 0 0 0 0 0 0 0 0 0 0 0 0 0 0 0 0 0 0 0 0 0 0 0 0 0 0 0 0 0 0
7 22 0 0 0 0 0 0 0 0 0 0 0 0 0 0 0 0 0 0 0 0 0 0 0 0 0 0 0 0 0 0 0 0 0 0 0 0 0 0 0 0 0 0 0
4 6 1 0 0 0 0 0 0 0 0 0 0 0 0 0 0 0 0 0 0 0 0 0 0 0 0 0 0 0 0 0 1 2 0 0 0 0 0 0 0 0 0 0 0
1 0 0 3 0 0 0 0 0 0 0 0 0 0 0 0 0 0 0 0 0 0 0 0 0 0 0 0 0 0 0 0 0 5 0 2 0 0 0 0 0 0 0 0 0
0 0 0 0 0 0 0 0 0 0 0 0 7 4 1 0 0 0 0 0 0 0 0 0 0 0 0 0 0 0 0 0 0 0 0 0 0 0 0 0 0 0 0 0 0
0 0 0 0 0 0 0 0 0 0 0 0 0 0 6 0 0 0 0 0 0 0 0 0 0 0 0 0 0 0 0 0 0 0 0 0 0 0 0 0 0 0 0 0 0
0 0 0 0 0 0 0 0 0 0 0 0 0 0 1 0 0 0 0 0 0 0 0 0 0 0 0 0 0 0 0 0 0 0 0 0 0 0 0 0 0 0 0 0 0
CIN
-2 -5 -1 -3 -3 -2 -3 -3 -9 -14 -10 -8 -12 -9 0 0 0 0 0 0 0 0 0 0 0 0 0 0 0 0 0 0 0 0 0 0 0 0 0 0 0 0 0 0 0
-4 -2 -7 -3 -5 -4 -3 -8 -17 -8 -8 -12 -13 -18 -4 0 0 0 0 0 0 0 0 0 0 0 0 0 0 0 0 0 0 0 0 0 0 0 0 0 0 0 0 0 0
-2 -13 -1 -1 -2 -3 -4 -3 -3 -7 -3 -9 -16 -7 0 0 0 0 0 0 0 0 0 0 0 0 0 0 0 0 0 0 0 0 0 0 0 0 0 0 0 0 0 0 0
-1 -4 -2 -5 -14 -12 -2 -4 -11 -4 -13 -3 -10 -18 -19 0 0 0 0 0 0 0 0 0 0 0 0 0 0 0 0 0 0 0 0 0 0 0 0 0 0 0 0 0 0
-4 -1 -8 -5 -3 -4 -8 -4 -3 -4 -5 -7 -3 -6 -2 0 0 0 0 0 0 0 0 0 0 0 0 0 0 0 0 0 0 0 0 0 0 0 0 0 0 0 0 0 0
-3 -5 -1 -15 -14 -3 -3 -3 -14 -16 -7 -5 -1 -3 0 0 0 0 0 0 0 0 0 0 0 0 0 0 0 0 0 0 0 0 0 0 0 0 0 0 0 0 0 0 0
0 -2 -6 -4 -14 -13 -6 -4 -5 -20 -23 -7 -7 -3 -2 0 0 0 0 0 0 0 0 0 0 0 0 0 0 0 0 0 0 0 0 0 0 0 0 0 0 0 0 0 0
-2 -1 -1 -5 -1 -9 -5 -6 -6 -11 -28 -10 -12 -11 0 -19 0 0 0 0 0 0 0 0 0 0 0 0 0 0 0 0 0 0 0 0 0 0 0 0 0 0 0 0 0
0 0 -3 -2 -4 -7 -13 -6 -5 -15 -5 -3 -4 -6 -3 0 0 0 0 0 0 0 0 0 0 0 0 0 0 0 0 0 0 0 0 0 0 0 0 0 0 0 0 0 0
-1 -1 0 0 -4 -13 -14 -9 -3 -4 -6 -3 -9 -1 0 0 0 0 0 0 0 0 0 0 0 0 0 0 0 0 0 0 0 0 0 0 0 0 0 0 0 0 0 0 0
0 0 0 0 0 -7 -8 0 -1 0 -16 0 0 0 0 0 0 0 0 0 -1 -1 0 -7 -1 0 0 0 0 0 0 0 0 0 0 0 0 0 0 0 0 0 0 0 0
-1 0 0 0 0 -3 -5 0 -10 0 0 0 0 0 0 0 0 -1 0 0 0 0 -2 -2 0 0 0 0 0 0 0 0 0 0 0 0 0 0 0 0 0 0 0 0 0
0 0 -2 -3 -5 -1 -2 -4 0 0 0 0 0 0 0 0 0 0 0 0 0 0 0 0 0 0 0 0 0 0 0 0 0 0 0 0 0 0 0 0 0 0 0 0 0
0 0 0 -3 -2 -3 0 -7 -5 -4 -4 0 0 0 0 0 0 0 0 0 -1 0 0 0 0 0 0 0 0 0 0 0 0 0 0 0 0 0 0 0 0 0 0 0 0
0 0 -2 -2 -1 -1 -2 0 -5 0 0 0 0 0 0 0 0 0 0 0 0 0 0 0 0 0 0 0 0 0 0 0 0 0 0 0 0 0 0 0 0 0 0 0 0
0 0 -1 -2 -2 0 -1 -6 -2 0 0 0 0 0 0 -1 0 0 -6 -4 0 -1 -2 0 0 0 0 0 0 0 0 0 0 0 0 0 0 0 0 0 0 0 0 0 0
0 0 -1 -16 0 -12 -3 0 -2 0 0 0 0 0 0 0 -2 -13 0 0 -2 -2 -1 -1 -2 0 0 -1 0 -1 0 0 0 -1 0 0 0 0 0 0 0 0 0 0 0
0 -1 -1 -6 -17 -16 -1 -2 0 0 0 0 0 -1 0 0 -1 -3 -4 -1 -6 0 0 0 -1 -2 0 0 0 -1 0 0 0 0 0 0 0 0 0 0 0 0 0 0 0
0 -3 0 0 -13 -7 -1 0 0 0 0 0 -1 0 -1 -1 0 -1 -4 0 -3 0 0 0 0 0 0 0 0 -1 0 0 0 0 0 0 0 0 0 0 0 0 0 0 0
-1 0 -4 -1 -13 -2 -1 0 0 -3 0 0 0 0 0 -1 -1 -2 -2 0 0 0 0 0 0 0 0 -8 0 0 0 0 0 0 0 0 0 0 0 0 0 0 0 0 0
-4 -2 0 0 -7 -6 0 0 0 0 -5 -4 0 0 0 0 0 0 0 0 0 0 0 0 0 0 0 -2 0 0 0 0 0 0 0 0 0 0 0 0 0 0 0 0 0
-4 -4 0 0 -1 0 0 0 0 0 0 -1 0 0 0 0 0 0 0 0 0 0 0 0 0 0 0 0 0 0 0 0 0 0 0 0 0 0 0 0 0 0 0 0 0
-1 -6 0 0 0 0 0 0 0 0 0 -1 -1 0 0 0 0 0 0 0 0 0 0 0 0 -2 0 0 0 0 0 -5 -2 -3 0 0 0 0 0 0 0 0 0 0 0
-1 0 0 0 0 0 0 0 0 0 0 0 0 0 0 0 0 0 0 0 0 0 0 0 0 0 0 0 0 0 0 0 0 -3 -4 -4 0 0 0 0 0 0 0 0 0
0 0 0 0 0 0 0 0 0 0 0 0 -1 -4 -5 0 0 0 0 0 0 0 0 0 0 0 0 0 0 0 0 0 0 0 0 0 0 0 0 0 0 0 0 0 0
0 0 0 0 0 0 0 0 0 0 0 0 0 -2 -14 0 0 0 0 0 0 0 -1 0 0 0 0 0 0 0 0 0 0 0 0 0 0 0 0 0 0 0 0 0 0
0 0 0 0 0 0 0 0 0 0 0 0 0 0 -1 0 0 0 0 0 0 0 0 0 0 0 0 0 0 0 0 0 0 0 0 0 0 0 0 0 0 0 0 0 0
Wind_Speed
28 27 28 30 29 30 31 29 30 30 30 29 29 29 30 31 32 30 33 24 21 20 17 17 17 16 16 17 17 17 26 28 24 18 21 19 20 16 15 16 15 13 15 15 10
27 27 27 28 30 31 31 29 29 29 29 29 29 28 29 30 31 37 30 28 25 20 21 20 20 17 20 20 20 22 28 29 23 21 22 20 22 22 18 15 16 15 15 14 8
31 29 27 29 29 29 32 30 29 30 30 29 27 27 27 27 31 28 26 27 26 22 20 20 19 20 25 23 24 25 32 28 26 23 23 22 24 23 22 20 16 16 14 9 6
37 36 33 31 29 27 28 28 29 31 31 30 27 26 25 24 34 21 24 24 19 17 20 21 22 23 26 28 26 32 31 28 28 24 23 25 25 26 25 22 15 13 14 10 4
38 37 36 34 32 31 30 28 31 34 35 31 28 26 25 31 32 22 23 20 17 18 21 22 25 26 29 28 28 34 33 29 32 28 28 28 28 28 30 23 19 20 18 15 12
40 39 37 35 34 33 32 31 30 30 32 32 30 26 29 41 25 24 25 20 18 19 23 22 26 25 28 30 29 29 33 36 32 31 33 34 34 28 31 25 27 27 26 23 18
39 39 38 37 36 35 34 33 31 30 31 31 29 28 33 38 23 20 24 22 24 22 22 23 23 25 26 30 31 30 36 35 34 35 36 27 44 39 34 32 35 31 29 28 24
38 37 38 37 37 36 34 34 33 30 30 28 28 30 42 29 30 34 30 30 25 23 21 20 20 24 27 25 28 32 35 42 33 30 32 29 50 33 34 35 43 42 39 37 33
36 34 35 36 35 35 34 33 31 30 31 28 30 31 42 25 32 32 28 28 24 23 21 19 20 26 27 31 35 35 43 41 42 31 31 33 43 35 33 33 37 37 38 37 38
36 36 35 34 34 34 33 30 30 28 29 27 29 31 37 33 31 27 24 24 26 25 25 26 27 33 34 35 47 41 40 40 40 34 37 41 47 41 34 32 32 33 36 37 38
35 35 35 34 33 33 31 26 29 32 32 36 32 34 30 27 24 26 22 23 25 29 35 32 38 44 40 38 37 35 38 40 36 33 38 44 49 47 49 47 46 46 45 44 42
35 34 34 34 33 31 31 33 31 27 35 35 35 35 27 23 30 29 20 30 33 39 33 37 49 39 34 37 39 39 40 41 36 33 36 43 53 48 48 50 46 45 44 43 43
35 34 33 33 32 33 33 33 24 23 35 38 40 39 36 32 35 33 27 31 36 38 38 43 39 38 38 38 41 44 46 42 42 34 33 42 55 48 44 45 45 46 45 42 42
35 34 33 32 32 32 35 32 25 21 45 42 40 42 35 30 44 33 28 30 33 41 37 42 41 36 39 44 39 48 38 39 39 41 50 34 59 45 37 38 35 35 36 39 38
37 35 34 29 28 27 28 27 19 22 47 32 34 25 32 36 30 35 29 31 37 35 36 42 38 40 42 41 36 44 32 38 40 44 46 48 49 50 39 43 41 38 34 32 29
35 35 34 35 34 34 21 15 21 38 47 31 27 31 29 33 33 27 28 27 28 33 37 36 31 34 37 32 31 27 31 31 33 38 53 51 46 55 46 42 39 27 23 20 20
31 32 32 31 38 29 24 22 41 51 30 31 32 30 30 31 31 29 33 34 35 40 43 39 38 32 29 34 31 32 32 41 45 48 57 40 45 59 40 35 34 31 25 24 27
31 30 31 30 25 25 30 38 50 48 39 27 27 27 34 27 32 28 30 35 35 33 34 42 46 39 33 36 38 37 37 44 54 53 52 36 51 49 35 40 34 31 28 26 25
37 38 33 28 23 24 36 53 44 38 36 32 26 33 33 30 28 29 31 34 32 31 34 38 43 28 31 29 28 37 44 35 39 38 44 43 46 47 41 36 34 33 28 29 30
29 30 34 24 24 27 42 53 40 33 27 31 39 35 39 34 30 30 30 31 32 31 26 28 35 30 27 25 28 34 29 41 39 52 56 48 50 48 37 36 32 31 32 30 32
31 30 35 25 24 33 50 40 42 35 34 31 34 37 38 36 33 33 31 27 27 27 26 24 29 29 24 36 36 31 35 36 37 42 52 56 53 41 40 35 32 30 31 33 34
27 33 27 21 31 34 42 40 36 30 37 33 30 29 37 37 36 35 34 28 25 23 30 26 28 32 31 27 31 35 39 38 47 49 49 53 54 31 28 29 32 34 37 38 38
29 29 28 26 38 35 34 38 37 41 33 38 29 30 24 31 37 33 32 26 19 24 25 24 29 31 32 32 29 35 37 38 39 37 48 54 55 41 43 41 38 40 41 40 39
24 25 26 29 31 33 35 38 40 37 39 44 39 34 32 29 28 32 28 25 19 20 18 20 26 33 38 36 29 34 32 33 36 46 49 49 51 51 49 50 48 45 44 46 47
23 32 32 20 25 26 30 36 42 44 38 37 41 33 34 33 29 29 25 21 18 18 18 18 29 27 25 24 23 27 29 29 34 38 45 49 50 53 51 46 43 42 44 46 46
24 28 25 26 22 24 27 37 39 46 38 38 46 37 34 35 36 28 23 24 22 19 18 17 23 21 25 24 25 30 29 30 31 34 38 43 49 46 39 40 42 43 44 45 45
25 21 23 21 19 24 27 30 39 42 42 49 48 40 36 46 35 32 22 17 16 17 16 16 17 18 25 22 23 34 34 32 33 34 34 41 40 36 37 37 38 38 38 39 40
Wind_Direction
305 303 301 297 297 296 294 296 291 291 290 292 294 296 295 294 291 288 278 281 285 289 293 287 284 282 281 276 279 279 270 271 275 280 286 288 285 299 306 302 299 301 307 313 346
301 302 297 298 295 293 293 292 293 294 292 291 292 295 295 296 289 279 281 279 279 283 279 277 272 273 271 272 273 268 267 270 279 279 283 286 281 281 293 298 295 298 305 314 337
296 295 295 294 293 293 288 291 290 292 293 291 293 294 296 297 288 282 289 284 273 269 275 275 274 269 266 269 267 269 267 271 277 279 280 282 280 280 279 286 294 297 305 322 332
293 291 289 290 288 289 291 287 291 288 290 289 289 291 294 290 275 290 295 293 280 261 266 268 267 263 265 263 267 268 269 272 274 277 279 277 282 278 274 281 297 306 311 315 322
292 290 287 286 284 283 285 284 287 285 282 288 285 286 287 278 273 291 297 297 285 267 261 262 261 262 263 267 266 266 268 271 270 275 274 276 275 276 273 281 289 290 297 303 306
290 288 285 284 282 279 280 281 282 284 284 280 281 281 277 270 285 285 289 287 290 274 263 262 266 263 268 267 264 272 269 268 271 272 272 271 272 275 271 281 279 278 280 287 294
289 288 286 283 280 277 276 277 277 279 284 277 278 275 273 270 282 286 283 279 283 280 271 264 266 262 266 269 267 271 269 271 269 267 268 277 266 266 269 273 272 275 278 279 283
289 287 286 284 281 277 274 274 274 275 278 275 275 274 271 279 273 273 274 273 275 275 275 273 265 266 267 270 272 268 268 265 270 267 271 266 264 274 273 270 266 268 269 271 274
289 288 286 284 283 279 273 273 271 272 274 273 273 269 269 275 268 271 268 267 266 269 270 273 264 262 262 261 265 266 263 264 267 267 270 263 270 274 274 272 271 270 271 272 271
286 286 283 282 281 279 276 270 269 268 270 270 271 268 266 268 268 272 271 259 261 258 262 261 262 257 257 253 256 260 264 266 267 271 266 266 266 270 274 274 273 273 272 272 272
283 284 282 280 277 277 275 274 264 264 254 256 262 263 277 266 273 271 267 255 258 255 251 255 254 251 252 255 263 265 264 266 269 272 270 267 268 269 267 269 268 269 270 271 273
283 282 279 277 275 273 269 260 260 268 263 254 263 257 267 271 264 263 261 251 249 250 250 254 252 254 261 255 258 261 262 264 271 274 273 271 268 270 269 267 269 270 271 272 273
280 279 278 275 275 267 261 259 263 264 264 262 252 257 254 261 261 258 251 253 250 248 245 250 262 253 255 256 255 258 259 263 266 275 278 276 270 271 272 271 270 270 271 273 273
277 276 275 272 272 266 261 258 262 271 261 259 252 256 254 258 259 255 251 253 255 249 249 256 255 258 254 253 254 257 261 262 266 269 266 276 265 269 273 273 275 277 275 275 276
273 271 269 262 269 264 266 255 253 261 263 257 250 259 244 245 260 252 246 252 251 251 248 255 254 251 255 258 254 260 264 262 265 265 268 265 267 266 271 270 273 277 278 280 282
272 270 267 261 260 258 276 250 242 250 255 258 251 243 238 241 253 256 244 255 253 252 252 256 262 255 255 258 253 260 262 267 267 264 262 261 260 264 265 269 272 280 287 290 293
270 268 264 260 254 255 255 257 244 245 248 253 249 241 234 242 242 245 236 240 245 247 248 251 255 261 258 253 254 254 249 259 261 258 260 265 259 261 268 273 273 275 278 285 292
269 267 262 258 254 249 246 248 247 244 244 252 246 240 241 238 240 242 236 240 245 249 248 248 253 251 254 255 255 248 249 257 260 260 264 262 261 264 273 267 271 278 280 288 291
259 258 260 253 247 242 241 240 248 248 239 241 234 234 243 239 245 238 240 236 240 243 252 251 256 261 254 256 252 249 250 260 264 267 264 263 267 269 270 273 272 274 280 284 289
262 263 258 245 239 240 242 242 247 249 243 235 238 237 240 232 243 236 238 244 243 243 254 261 261 262 253 259 258 256 252 255 259 258 260 264 264 262 270 267 270 274 280 286 289
261 265 252 243 235 241 239 244 243 251 242 244 246 240 241 235 241 234 240 257 233 237 244 253 260 263 252 251 250 256 253 259 263 260 261 263 264 268 265 272 275 276 282 289 293
265 264 257 222 233 243 241 242 241 260 242 243 250 247 240 233 239 239 244 253 234 231 233 250 260 258 259 265 261 255 257 255 258 260 263 264 262 278 278 276 278 280 285 289 292
260 266 248 226 233 241 244 245 244 246 247 240 253 240 246 233 240 243 244 243 233 231 232 238 256 255 259 265 268 261 260 259 263 270 263 263 266 270 272 279 283 285 288 291 293
253 257 240 231 240 237 242 244 243 243 247 241 248 245 242 237 245 238 239 241 240 231 235 232 259 256 259 268 264 262 263 261 262 262 265 267 271 270 273 276 280 284 287 290 293
245 245 236 235 232 236 242 245 243 239 246 241 243 237 234 234 235 240 235 235 237 227 236 247 256 260 266 270 272 267 266 266 265 267 268 271 272 273 276 279 283 286 287 289 291
235 231 235 245 240 236 243 246 241 237 240 241 235 238 234 234 229 225 228 226 234 227 231 252 265 259 262 271 274 273 274 273 271 273 274 276 276 278 282 283 283 286 289 289 291
231 239 234 243 239 239 241 245 239 236 240 233 229 235 233 227 235 238 233 220 215 204 228 238 260 261 266 275 278 276 272 272 275 275 277 275 280 284 284 286 287 289 292 293 294